Location: Mountain View
(37.3861°N, 122.0839°W)
Time: 15:44:39
(UTC-07:00)

N. Korean satellite - Visible Passes

Search period start: 21 September 2021 00:00
Search period end: 01 October 2021 00:00
Orbit: 448 x 498 km, 97.3° (Epoch: 20 September)

Date Brightness Start Highest point End Pass type
(mag) Time Alt. Az. Time Alt. Az. Time Alt. Az.
21 Sep 6.9 06:16:57 10° NNE 06:20:28 68° E 06:24:01 10° S visible
22 Sep 8.9 05:49:36 10° NE 05:52:40 27° E 05:55:46 10° SSE visible
23 Sep 9.9 05:23:20 10° ENE 05:24:46 12° E 05:26:13 10° ESE visible
24 Sep 6.5 06:26:50 10° N 06:30:25 85° WNW 06:34:00 10° SSW visible
25 Sep 8.2 05:59:17 10° NNE 06:02:38 37° E 06:06:00 10° SSE visible
26 Sep 9.7 05:32:25 10° NE 05:34:45 16° E 05:37:05 10° SE visible
28 Sep 7.5 06:09:00 10° NNE 06:12:31 52° E 06:16:04 10° S visible
29 Sep 9.3 05:41:47 10° NE 05:44:40 22° E 05:47:32 10° SSE visible
